Wind_Speed
13 12 14 15 18 25 25 28 22 19 22 26 26 34 31 28 29 28 24 21 20 21 20 24 24 23 23 24 24 24 24 21 16 15 17 17 20 17 17 18 18 19 20 23
12 16 17 15 14 20 22 26 31 20 15 20 25 32 29 27 29 28 27 27 26 24 23 22 27 25 24 26 24 25 24 19 16 15 16 14 15 16 15 16 16 19 20 21
15 16 10 10 14 19 23 25 25 27 20 17 21 27 27 22 24 24 24 24 24 26 25 23 22 25 27 26 24 21 20 17 17 17 15 13 12 10 14 15 16 19 19 20
15 11 13 16 19 18 21 22 26 24 22 23 21 20 23 25 29 29 27 25 25 25 25 23 23 24 28 27 22 19 17 15 15 18 19 19 16 13 14 16 16 18 18 18
21 19 16 18 20 19 20 18 24 23 23 25 30 19 19 19 21 19 18 20 23 24 24 25 24 24 26 25 24 22 20 18 17 18 18 18 16 12 14 16 19 18 18 18
21 18 18 22 19 17 14 17 20 19 14 18 24 22 20 21 26 22 18 20 21 21 19 18 20 22 21 18 19 19 17 15 15 16 17 17 17 15 17 19 20 20 19 18
18 14 14 15 19 20 16 16 11 15 18 19 21 20 19 7 1 1 8 15 8 11 13 13 12 12 14 14 15 14 13 13 14 16 17 17 17 17 19 22 21 22 21 19
7 7 14 7 18 21 21 19 15 20 17 20 26 23 16 16 14 15 12 10 10 11 11 10 12 10 11 13 12 10 12 13 15 16 17 17 18 19 20 19 21 19 19 19
9 6 12 10 12 14 20 20 21 24 19 16 18 26 26 19 11 9 3 6 8 10 11 14 11 8 8 8 8 11 13 16 17 19 19 20 19 21 21 23 18 19 19 18
7 10 10 4 7 14 8 13 4 15 13 20 17 22 15 24 27 15 0 9 13 15 12 6 3 7 7 10 13 15 18 20 20 21 21 21 22 21 22 20 20 19 17 17
14 7 11 13 6 4 5 9 12 14 17 13 12 16 19 14 11 8 6 12 15 15 11 7 2 5 11 15 18 19 20 22 21 22 22 22 21 21 21 20 19 17 16 15
13 6 11 16 10 5 8 11 5 5 20 16 10 3 11 18 14 6 11 15 16 15 8 4 2 6 13 17 19 20 21 22 22 23 22 21 21 21 20 19 17 16 14 12
8 5 10 9 8 4 8 14 13 14 14 14 12 4 14 10 6 10 14 16 16 15 8 4 3 6 11 16 19 21 22 23 23 23 23 21 20 19 18 17 15 14 14 13
10 13 15 13 18 14 11 12 12 13 10 13 16 20 8 11 12 16 15 19 18 16 9 3 2 6 10 16 19 20 22 23 24 23 22 20 18 16 15 14 14 14 15 15
5 14 18 18 19 17 18 18 17 17 19 18 18 24 19 17 16 18 19 21 17 15 9 4 3 6 8 14 19 21 22 22 21 21 20 18 17 16 15 15 15 15 15 13
4 6 13 20 18 18 22 21 21 21 20 21 22 27 22 23 22 21 20 18 16 14 12 7 7 8 11 15 20 21 21 20 19 19 19 18 16 15 14 15 15 16 14 10
4 4 9 13 11 13 16 17 19 22 21 21 21 23 21 23 20 19 19 18 16 15 13 10 11 12 13 18 21 21 21 20 19 19 17 16 14 14 14 15 16 16 11 10
5 9 9 6 2 9 11 2 9 13 13 15 22 22 23 22 20 18 17 18 18 15 12 13 13 14 18 20 22 21 21 20 19 18 15 13 12 12 12 14 16 13 11 9
12 6 5 4 9 14 19 7 4 3 12 16 21 19 18 16 15 17 16 17 19 16 10 13 17 20 22 23 23 22 21 20 18 16 13 12 11 14 14 17 16 13 10 8
8 12 7 4 4 5 3 6 3 10 17 8 16 18 14 10 11 9 2 12 10 8 10 14 20 24 25 24 23 22 20 19 16 15 13 12 13 15 16 16 14 12 10 10
2 3 12 12 6 6 2 4 7 5 5 14 12 13 16 10 11 12 13 16 17 6 14 21 22 21 24 25 24 21 20 17 15 14 14 13 14 14 15 14 12 10 10 10
3 4 2 6 5 5 4 6 5 12 20 19 15 14 15 15 13 15 15 15 15 8 15 19 19 21 25 26 23 22 19 17 13 14 15 14 15 15 15 13 11 10 9 10
3 2 3 3 3 10 13 9 15 21 23 23 14 14 15 18 14 14 12 10 8 9 12 19 19 22 24 24 23 23 20 17 14 15 15 15 15 13 12 10 10 9 9 9
4 4 3 3 1 12 14 10 13 17 3 10 12 15 10 11 9 9 9 8 7 5 9 18 20 18 21 23 23 23 21 18 17 16 16 16 14 12 9 8 7 8 8 8
4 2 4 5 11 11 4 13 14 14 11 12 9 8 7 9 6 5 1 5 7 6 8 16 18 19 21 24 24 23 21 19 18 17 16 15 13 10 9 6 5 6 6 4
3 3 2 3 14 7 9 12 15 15 13 12 12 10 11 10 8 8 1 3 6 7 6 14 19 20 22 24 24 23 21 19 19 17 14 14 14 12 10 10 10 9 10 8
Wind_Direction
247 260 257 259 253 256 265 268 264 273 261 256 238 241 248 246 252 256 258 253 255 258 267 273 275 270 266 264 257 252 253 252 237 231 225 224 219 215 214 210 206 200 199 201
259 248 263 276 273 275 260 257 259 257 287 246 246 250 251 247 250 250 252 255 260 266 266 268 267 264 262 261 257 254 250 243 233 229 224 220 215 208 204 200 194 194 197 198
274 277 297 260 263 251 254 254 256 253 261 239 251 252 251 249 255 255 258 260 261 262 265 266 266 263 261 256 254 253 252 234 231 221 212 202 180 175 183 190 187 189 191 190
280 288 274 260 258 257 264 249 255 254 250 244 231 254 243 242 244 243 246 247 251 256 257 260 261 258 256 258 255 252 240 229 225 210 206 197 187 183 195 180 175 174 175 176
268 290 285 262 256 261 261 270 249 243 246 245 244 258 258 256 256 255 251 254 254 255 258 258 258 259 259 257 253 245 244 242 229 211 205 192 202 182 168 164 159 159 162 166
270 269 269 265 262 266 260 273 256 240 255 249 237 236 253 252 254 253 251 254 251 256 268 268 263 256 248 249 242 238 234 223 204 196 191 188 184 168 160 149 149 151 154 161
317 320 298 237 240 242 238 238 246 227 231 239 240 231 240 266 313 221 293 265 229 267 269 264 260 238 229 230 223 219 214 201 189 183 177 175 170 164 159 155 154 151 152 159
333 340 334 298 234 241 229 233 241 242 233 234 225 239 225 232 264 266 255 260 271 270 277 271 276 249 236 217 214 211 202 180 170 164 159 157 155 152 150 149 145 145 154 157
314 302 288 305 322 272 235 249 261 263 268 276 228 216 249 247 243 233 239 338 333 318 303 293 271 217 206 180 179 184 161 152 150 146 141 143 143 145 136 136 138 146 145 146
314 299 299 138 289 264 292 248 319 249 257 250 239 212 220 213 228 247 272 2 356 351 332 327 239 179 139 153 146 139 140 139 136 134 135 133 130 130 131 133 138 141 141 150
302 275 288 285 244 229 272 242 243 247 243 265 227 217 210 214 122 111 33 11 360 6 347 4 8 114 152 140 135 134 132 130 131 132 128 127 126 128 133 136 139 140 144 152
309 291 285 287 284 213 172 227 228 250 224 250 298 34 122 113 115 71 12 13 357 18 6 353 113 156 151 137 135 133 131 131 131 128 125 125 129 133 136 137 140 145 148 151
340 255 300 292 167 215 218 239 209 250 254 266 242 160 152 170 90 29 4 360 353 5 31 44 130 156 140 141 136 136 135 132 129 126 126 130 132 133 136 140 145 149 149 151
295 266 263 276 298 321 300 284 276 269 280 269 252 263 192 214 328 332 339 337 340 341 65 61 141 153 143 143 139 136 132 132 131 131 131 131 134 138 141 145 150 152 153 153
269 263 266 273 281 284 281 275 269 260 262 262 262 271 263 274 301 316 311 306 320 335 14 140 167 145 157 142 136 134 133 131 132 131 129 132 136 136 140 145 150 151 152 157
208 264 282 274 268 270 270 268 264 263 259 259 264 266 271 281 284 288 292 307 310 320 335 146 172 167 151 146 143 138 135 134 136 135 134 137 136 138 141 147 150 155 156 161
242 263 269 255 264 274 273 266 258 252 249 242 252 262 263 266 272 276 284 295 302 302 316 157 182 174 158 155 143 144 140 141 140 138 140 140 140 141 149 153 156 158 156 151
221 224 252 281 272 255 254 46 297 297 275 258 253 259 262 265 271 272 273 278 290 291 291 158 190 168 164 152 152 144 148 146 144 143 143 146 152 149 154 162 160 156 151 165
217 212 265 242 227 266 285 294 351 2 285 284 262 257 268 268 268 264 266 270 272 275 258 163 175 166 156 161 152 151 153 152 150 147 148 153 149 152 153 154 156 156 153 153
207 233 257 260 248 256 24 101 29 296 280 305 255 255 267 246 243 253 222 340 309 258 198 157 168 158 158 158 155 156 152 157 157 146 148 147 151 156 159 157 164 164 168 170
225 216 231 242 254 267 279 31 340 239 355 341 343 330 318 248 251 292 319 305 306 234 158 158 157 158 158 156 159 160 160 162 150 145 144 146 148 156 161 165 170 171 181 159
290 305 250 237 244 260 50 321 231 317 306 306 301 297 291 281 271 273 283 285 285 192 156 157 157 154 156 159 160 160 167 156 147 144 148 143 151 156 154 164 169 177 178 173
291 234 300 261 308 293 295 243 267 266 260 269 274 279 279 282 274 278 278 267 252 170 158 159 155 152 158 161 163 160 164 152 154 145 143 147 156 151 151 162 177 177 181 172
282 111 242 315 289 278 307 305 310 334 333 243 264 265 282 281 278 273 263 235 179 146 182 162 151 155 157 161 163 162 158 163 151 147 147 149 153 150 147 157 167 181 167 164
306 246 285 252 278 308 4 352 337 341 19 23 11 6 348 341 331 302 272 221 152 140 203 162 155 156 158 160 159 160 163 159 147 151 148 154 146 157 151 137 124 144 116 113
337 298 284 319 326 360 334 347 343 343 7 13 7 3 13 352 354 340 93 118 144 123 195 178 158 154 157 161 158 160 167 159 148 155 161 159 149 152 154 146 124 97 112 118
Height
748 754 745 739 735 730 728 719 710 705 702 706 701 697 695 693 690 687 686 685 684 682 684 687 689 692 694 697 698 697 699 699 700 701 701 701 701 705 708 711 716 720 725 729
751 748 739 736 738 739 732 731 721 713 713 703 701 692 689 688 681 680 681 683 680 679 680 680 683 684 686 690 690 690 691 693 693 694 695 695 696 698 702 707 712 716 721 724
750 738 732 741 741 742 738 733 726 721 712 706 707 700 690 679 677 675 675 678 678 677 675 674 675 676 678 681 682 682 684 685 685 687 690 691 693 696 699 705 708 712 716 719
744 734 737 736 737 735 734 724 724 722 723 716 703 705 685 677 674 671 668 670 669 668 665 664 666 667 669 670 672 674 676 677 680 681 683 684 685 689 694 699 704 708 712 716
739 734 735 734 729 724 725 719 718 716 713 713 705 705 677 670 670 664 660 660 659 659 655 653 653 654 656 660 663 666 668 669 671 674 676 679 682 685 691 696 701 706 710 715
734 728 728 725 721 721 719 722 720 717 720 710 693 694 678 672 660 656 650 648 649 648 645 643 645 648 649 652 656 659 660 661 664 668 671 675 678 681 687 693 699 704 709 714
732 724 712 716 724 718 720 726 733 728 716 711 689 690 676 655 647 648 653 648 643 642 640 639 637 637 641 645 649 652 654 656 660 665 668 673 677 681 686 691 694 700 707 712
749 737 736 720 719 719 718 721 719 720 701 690 684 685 666 655 650 644 644 645 642 639 633 633 631 634 635 639 644 648 651 654 658 663 667 672 677 679 685 688 694 699 705 711
748 741 730 723 722 716 717 726 708 707 693 685 660 667 662 648 649 647 643 642 640 637 633 631 628 629 632 637 644 646 648 653 658 663 667 673 675 679 684 690 696 701 706 712
748 748 722 730 730 711 713 711 742 705 718 691 660 655 659 641 652 644 644 647 642 636 631 628 629 630 635 642 642 646 650 655 660 664 669 673 677 683 687 692 697 703 708 713
738 742 728 714 717 716 720 724 724 713 691 682 658 646 629 632 635 648 649 646 640 635 637 635 636 639 642 640 644 648 652 656 662 667 671 675 680 685 690 696 701 705 710 714
736 741 729 714 703 706 727 734 736 724 702 675 678 649 628 638 647 653 651 643 638 634 646 645 644 644 637 641 646 650 654 659 665 668 673 679 684 689 694 698 702 707 710 714
741 731 725 705 705 705 709 704 713 710 712 702 671 649 638 638 643 648 652 647 639 633 646 647 647 644 640 643 647 652 656 661 665 671 677 684 689 692 696 700 705 708 711 714
750 737 728 721 702 699 707 705 700 697 700 687 668 653 644 642 643 645 653 652 643 636 641 649 649 646 645 645 650 655 660 664 668 674 680 686 691 695 698 702 706 709 712 715
748 736 722 712 706 705 705 704 700 698 690 688 679 664 652 648 650 651 655 654 646 639 634 650 651 651 649 650 652 658 664 668 673 678 683 689 693 696 700 704 707 710 713 715
749 736 726 717 709 704 699 693 691 690 686 683 678 669 661 657 657 657 652 648 644 641 635 646 653 654 653 654 655 660 666 671 677 681 686 690 694 698 702 705 708 711 713 716
750 743 730 712 701 699 695 680 675 673 671 673 672 660 657 655 656 654 650 649 643 640 636 643 652 651 652 654 658 662 668 674 678 682 687 691 694 698 702 706 709 711 714 718
742 738 727 709 716 710 675 670 674 674 667 662 658 656 653 651 648 645 643 642 640 636 632 638 646 646 652 656 659 665 671 675 678 683 687 692 694 698 703 706 708 712 716 719
742 737 717 708 698 686 679 677 688 699 678 661 650 645 645 643 644 642 639 638 632 628 627 632 641 645 651 656 660 666 671 674 677 682 687 691 695 699 703 706 710 713 716 719
737 733 726 707 715 703 693 698 699 695 675 647 650 650 646 645 649 637 630 632 625 622 621 630 637 642 649 655 662 667 671 674 676 681 686 691 694 699 703 706 710 713 716 719
726 728 722 707 711 697 690 704 709 694 666 669 668 666 657 645 641 633 636 638 633 625 623 630 635 642 649 656 662 667 671 673 677 683 687 692 696 700 703 708 711 714 715 717
724 716 705 703 701 695 708 711 701 676 675 677 672 671 663 648 643 642 641 637 633 627 624 629 636 643 651 657 662 667 671 674 679 683 688 693 698 700 705 708 712 714 716 718
720 727 719 720 707 707 703 705 702 694 686 676 671 669 664 653 643 639 636 630 625 626 626 630 635 644 651 657 662 667 671 676 680 684 689 695 699 701 705 709 712 714 715 717
711 730 727 724 707 705 697 695 688 675 666 669 668 665 654 646 639 637 630 625 624 629 628 629 636 644 651 657 662 667 671 676 680 686 691 696 699 702 706 709 712 713 714 715
713 720 721 712 700 694 696 692 687 679 673 669 665 663 657 651 643 638 629 626 624 632 629 630 637 643 651 657 662 667 673 676 681 690 692 696 699 702 706 710 712 713 715 715
707 714 715 702 699 700 698 693 690 683 677 674 671 666 661 652 646 641 633 630 629 634 638 635 640 646 652 656 662 667 672 677 682 691 692 693 697 701 704 708 713 715 716 718